EW6338 Weather Reports


time (UTC)temp
C
wind
direction
speed
KPH
gust
KPH
rain 1hr
cm
rain 24hr
cm
rain mn
cm
humidity
%
barometer
mb
20260510110036 10 125 1.6 6.4 0.00 0.00 0.00 99 1010.8
20260510104527 10 130 0.0 1.6 0.00 0.00 0.00 98 1010.7
20260510103026 9 250 0.0 0.0 0.00 0.00 0.00 98 1011.2
20260510101524 9 128 0.0 1.6 0.00 0.00 0.00 98 1010.9
20260510100031 9 131 0.0 0.0 0.00 0.00 0.00 98 1011.1
20260510094531 8 272 0.0 0.0 0.00 0.00 0.00 98 1010.8
20260510093021 8 273 0.0 0.0 0.00 0.00 0.00 98 1010.6
20260510091521 9 272 0.0 0.0 0.00 0.00 0.00 98 1010.5
20260510090020 9 272 0.0 1.6 0.00 0.00 0.00 98 1010.4
20260510084525 9 131 0.0 0.0 0.00 0.00 0.00 98 1010.4
20260510083019 9 131 0.0 0.0 0.00 0.00 0.00 98 1010.4
20260510081518 9 131 0.0 0.0 0.00 0.00 0.00 98 1010.4
20260510080020 10 131 0.0 1.6 0.00 0.00 0.00 98 1010.3
20260510074517 9 131 0.0 0.0 0.00 0.00 0.00 98 1010.2
20260510073015 9 131 0.0 0.0 0.00 0.00 0.00 98 1010.0
20260510071521 9 131 0.0 0.0 0.00 0.00 0.00 98 1009.8
20260510070013 9 131 0.0 0.0 0.00 0.00 0.00 98 1010.1
20260510064512 9 131 0.0 0.0 0.00 0.00 0.00 98 1010.0
20260510063011 9 131 0.0 0.0 0.00 0.00 0.00 98 1010.2
20260510061511 9 131 0.0 0.0 0.00 0.00 0.00 98 1010.0
20260510060008 9 131 0.0 0.0 0.00 0.00 0.00 97 1010.2
20260510054506 9 131 0.0 0.0 0.00 0.00 0.00 98 1010.3
20260510053003 9 131 0.0 0.0 0.00 0.00 0.00 98 1010.6
20260510051502 8 131 0.0 1.6 0.00 0.00 0.00 98 1010.6
20260510050100 8 131 0.0 0.0 0.00 0.00 0.00 98 1010.7
20260510044611 8 131 0.0 0.0 0.00 0.00 0.00 98 1010.7
20260510043057 8 131 0.0 0.0 0.00 0.00 0.00 97 1010.5
20260510041558 8 131 0.0 0.0 0.00 0.00 0.00 97 1010.4
20260510040050 8 131 0.0 0.0 0.00 0.00 0.00 97 1010.8
20260510034550 8 131 0.0 0.0 0.00 0.00 0.00 97 1010.9
20260510033110 8 131 0.0 0.0 0.00 0.00 0.00 97 1011.0
20260510031549 8 131 0.0 0.0 0.00 0.00 0.00 97 1011.3
20260510030048 8 131 0.0 0.0 0.00 0.00 0.00 97 1011.2
20260510024546 8 131 0.0 0.0 0.00 0.00 0.00 97 1011.4
20260510023044 8 131 0.0 0.0 0.00 0.00 0.00 97 1011.6
20260510021544 8 131 0.0 0.0 0.00 0.00 0.00 97 1011.5
20260510020047 8 131 0.0 0.0 0.00 0.00 0.00 97 1011.7
20260510014544 7 131 0.0 0.0 0.00 0.00 0.00 97 1011.9
20260510013043 7 131 0.0 0.0 0.00 0.00 0.00 97 1011.7
20260510011543 7 131 0.0 1.6 0.00 0.00 0.00 96 1011.5
20260510010052 7 131 0.0 1.6 0.00 0.00 0.00 96 1011.4
20260510004541 7 132 0.0 1.6 0.00 0.00 0.00 96 1011.4
20260510003053 7 132 0.0 1.6 0.00 0.00 0.00 96 1011.7
20260510001545 7 131 0.0 1.6 0.00 0.00 0.00 96 1011.7
20260510000049 7 112 0.0 1.6 0.00 0.00 0.00 96 1011.6
20260509234546 7 112 0.0 0.0 0.00 0.00 0.00 96 1011.8
20260509233038 7 112 0.0 1.6 0.00 0.00 0.00 96 1011.5
20260509231538 7 230 0.0 0.0 0.00 0.00 0.00 96 1011.3
20260509230037 7 229 0.0 0.0 0.00 0.00 0.00 95 1011.3
20260509224537 7 230 0.0 0.0 0.00 0.00 0.00 95 1011.4
20260509223035 7 229 0.0 1.6 0.00 0.00 0.00 95 1011.4
20260509221535 7 229 0.0 0.0 0.00 0.00 0.00 95 1011.5
20260509220043 7 108 0.0 0.0 0.00 0.00 0.00 95 1011.4
20260509214540 7 108 0.0 1.6 0.00 0.00 0.00 95 1011.3
20260509213040 7 27 0.0 3.2 0.00 0.00 0.00 94 1011.5
20260509211537 7 117 0.0 3.2 0.00 0.00 0.00 94 1011.5
20260509210034 7 141 0.0 1.6 0.00 0.00 0.00 94 1011.5
20260509204541 7 77 0.0 6.4 0.00 0.00 0.00 93 1011.7
20260509203035 8 134 0.0 3.2 0.00 0.00 0.00 93 1011.9
20260509201532 8 96 0.0 3.2 0.00 0.00 0.00 93 1012.2
20260509200038 8 73 0.0 4.8 0.00 0.00 0.00 92 1012.3
20260509194539 8 123 0.0 6.4 0.00 0.00 0.00 92 1011.8
20260509193038 8 105 0.0 3.2 0.00 0.00 0.00 92 1011.3
20260509191529 8 43 0.0 4.8 0.00 0.00 0.00 92 1011.5
20260509190031 8 131 0.0 6.4 0.00 0.00 0.00 92 1011.5
20260509184533 8 86 0.0 4.8 0.00 0.00 0.00 91 1012.2
20260509183030 9 138 0.0 3.2 0.00 0.00 0.00 92 1012.7
20260509181524 9 100 0.0 3.2 0.00 0.00 0.00 92 1012.6
20260509180024 9 118 0.0 1.6 0.00 0.00 0.00 91 1012.5
20260509174523 9 121 0.0 3.2 0.00 0.00 0.00 92 1012.8
20260509173022 9 122 0.0 1.6 0.00 0.00 0.00 92 1012.8
20260509171524 9 131 0.0 0.0 0.00 0.00 0.00 93 1012.8
20260509170021 9 131 0.0 1.6 0.00 0.00 0.00 92 1013.1
20260509164521 8 131 0.0 1.6 0.00 0.00 0.00 91 1013.1
20260509163022 8 137 0.0 1.6 0.00 0.00 0.00 91 1013.0
20260509161519 8 111 0.0 0.0 0.00 0.00 0.00 90 1013.0
20260509160023 8 112 0.0 0.0 0.00 0.00 0.00 89 1013.2
20260509154521 8 111 0.0 0.0 0.00 0.00 0.00 89 1013.5
20260509153023 8 112 0.0 1.6 0.00 0.00 0.00 87 1013.6
20260509151518 8 133 0.0 0.0 0.00 0.00 0.00 87 1013.8
20260509150020 9 133 0.0 1.6 0.00 0.00 0.00 87 1013.9
20260509144516 9 133 0.0 1.6 0.00 0.00 0.00 85 1014.0
20260509143020 9 184 0.0 1.6 0.00 0.00 0.00 82 1014.1
20260509141515 9 129 0.0 1.6 0.00 0.00 0.00 80 1014.0
20260509140014 10 96 0.0 3.2 0.00 0.00 0.00 73 1013.9
20260509134514 11 145 0.0 1.6 0.00 0.00 0.00 69 1013.6
20260509133013 10 96 0.0 4.8 0.00 0.00 0.00 69 1013.5
20260509131527 10 110 0.0 3.2 0.00 0.00 0.00 68 1013.5
20260509130021 11 146 0.0 3.2 0.00 0.00 0.00 69 1013.8
20260509124505 10 266 0.0 1.6 0.00 0.00 0.00 73 1013.8
20260509123002 9 180 0.0 1.6 0.00 0.00 0.00 81 1014.0
20260509121612 8 150 0.0 0.0 0.00 0.00 0.00 85 1013.7
20260509120055 7 155 0.0 0.0 0.00 0.00 0.00 87 1013.6
20260509114551 6 244 0.0 1.6 0.00 0.00 0.00 90 1013.7
20260509113055 6 244 0.0 0.0 0.00 0.00 0.00 92 1013.9
20260509111556 5 244 0.0 0.0 0.00 0.00 0.00 92 1013.8